TimeCDT,TemperatureF,Dew PointF,Humidity,Sea Level PressureIn,VisibilityMPH,Wind Direction,Wind SpeedMPH,Gust SpeedMPH,PrecipitationIn,Events,Conditions,WindDirDegrees,DateUTC
12:15 AM,37.6,23.4,57,30.08,10.0,South,5.8,-,N/A,,Clear,180,2012-10-08 05:15:00
12:35 AM,37.4,23.2,57,30.08,10.0,South,6.9,-,N/A,,Clear,180,2012-10-08 05:35:00
12:55 AM,38.3,23.9,56,30.08,10.0,South,5.8,-,N/A,,Clear,180,2012-10-08 05:55:00
1:15 AM,38.7,23.7,55,30.08,10.0,South,5.8,-,N/A,,Clear,180,2012-10-08 06:15:00
1:35 AM,38.3,23.7,56,30.07,10.0,South,6.9,-,N/A,,Clear,180,2012-10-08 06:35:00
1:55 AM,37.9,23.9,57,30.07,10.0,South,5.8,-,N/A,,Clear,190,2012-10-08 06:55:00
2:15 AM,38.3,23.9,56,30.07,10.0,SSW,6.9,-,N/A,,Clear,200,2012-10-08 07:15:00
2:35 AM,37.8,24.3,58,30.07,10.0,SSW,5.8,-,N/A,,Clear,210,2012-10-08 07:35:00
2:55 AM,37.0,24.3,60,30.06,10.0,South,5.8,-,N/A,,Clear,190,2012-10-08 07:55:00
3:15 AM,36.5,24.6,62,30.06,10.0,SSW,4.6,-,N/A,,Clear,200,2012-10-08 08:15:00
3:35 AM,36.5,25.2,64,30.05,10.0,South,6.9,-,N/A,,Clear,190,2012-10-08 08:35:00
3:55 AM,36.5,25.5,64,30.05,10.0,SSW,6.9,-,N/A,,Clear,200,2012-10-08 08:55:00
4:15 AM,36.1,25.7,66,30.05,10.0,South,5.8,-,N/A,,Clear,190,2012-10-08 09:15:00
4:35 AM,36.0,26.2,68,30.05,10.0,SSW,6.9,-,N/A,,Clear,200,2012-10-08 09:35:00
4:55 AM,36.5,26.6,67,30.04,10.0,South,5.8,-,N/A,,Clear,190,2012-10-08 09:55:00
5:15 AM,36.9,27.3,68,30.04,10.0,SSW,8.1,-,N/A,,Clear,200,2012-10-08 10:15:00
5:35 AM,36.9,27.5,69,30.04,10.0,SSW,6.9,-,N/A,,Clear,200,2012-10-08 10:35:00
5:55 AM,37.4,28.0,69,30.04,10.0,SSW,6.9,-,N/A,,Clear,200,2012-10-08 10:55:00
6:15 AM,37.2,28.0,69,30.04,10.0,South,6.9,-,N/A,,Clear,180,2012-10-08 11:15:00
6:35 AM,37.4,28.4,70,30.03,10.0,South,8.1,-,N/A,,Clear,190,2012-10-08 11:35:00
6:55 AM,38.1,28.9,70,30.03,10.0,South,8.1,-,N/A,,Clear,190,2012-10-08 11:55:00
7:15 AM,38.7,29.1,69,30.03,10.0,South,8.1,-,N/A,,Clear,190,2012-10-08 12:15:00
7:35 AM,38.7,29.1,69,30.03,10.0,South,6.9,-,N/A,,Clear,180,2012-10-08 12:35:00
7:55 AM,39.7,29.5,67,30.04,10.0,South,6.9,-,N/A,,Clear,190,2012-10-08 12:55:00
8:15 AM,41.2,29.8,64,30.04,10.0,South,5.8,-,N/A,,Clear,190,2012-10-08 13:15:00
8:35 AM,42.8,30.2,61,30.04,10.0,South,6.9,-,N/A,,Clear,190,2012-10-08 13:35:00
8:55 AM,44.6,30.7,58,30.03,10.0,South,6.9,-,N/A,,Clear,190,2012-10-08 13:55:00
9:15 AM,46.2,31.1,56,30.03,10.0,SSW,8.1,-,N/A,,Clear,200,2012-10-08 14:15:00
9:35 AM,49.1,31.8,51,30.02,10.0,SSW,10.4,-,N/A,,Clear,210,2012-10-08 14:35:00
9:55 AM,51.6,31.8,47,30.02,10.0,SSW,10.4,-,N/A,,Clear,200,2012-10-08 14:55:00
10:15 AM,52.9,31.8,45,30.02,10.0,South,10.4,-,N/A,,Clear,190,2012-10-08 15:15:00
10:35 AM,55.4,32.0,41,30.01,10.0,South,12.7,17.3,N/A,,Clear,170,2012-10-08 15:35:00
10:55 AM,57.7,32.2,38,30.00,10.0,South,12.7,18.4,N/A,,Clear,190,2012-10-08 15:55:00
11:15 AM,59.5,32.0,35,29.99,10.0,South,18.4,21.9,N/A,,Clear,190,2012-10-08 16:15:00
11:35 AM,61.2,32.4,34,29.98,10.0,SSW,19.6,24.2,N/A,,Clear,210,2012-10-08 16:35:00
11:55 AM,61.9,32.2,33,29.98,10.0,SSW,17.3,27.6,N/A,,Clear,210,2012-10-08 16:55:00
12:15 PM,63.0,32.7,32,29.97,10.0,SSW,16.1,25.3,N/A,,Clear,210,2012-10-08 17:15:00
12:35 PM,63.3,32.9,32,29.97,10.0,South,19.6,27.6,N/A,,Clear,190,2012-10-08 17:35:00
12:55 PM,63.9,32.7,31,29.96,10.0,SSW,23.0,28.8,N/A,,Clear,210,2012-10-08 17:55:00
1:15 PM,63.9,32.9,31,29.95,10.0,SSW,19.6,26.5,N/A,,Clear,200,2012-10-08 18:15:00
1:35 PM,64.2,32.5,31,29.94,10.0,SSW,18.4,26.5,N/A,,Clear,210,2012-10-08 18:35:00
1:55 PM,65.1,32.7,30,29.93,10.0,SW,19.6,32.2,N/A,,Clear,230,2012-10-08 18:55:00
2:15 PM,65.1,32.7,30,29.92,10.0,SSW,18.4,27.6,N/A,,Clear,210,2012-10-08 19:15:00
2:35 PM,64.9,32.9,30,29.92,10.0,SSW,20.7,29.9,N/A,,Clear,200,2012-10-08 19:35:00
2:55 PM,65.8,32.5,29,29.91,10.0,South,19.6,24.2,N/A,,Clear,190,2012-10-08 19:55:00
3:15 PM,64.8,32.5,30,29.91,10.0,SSW,16.1,26.5,N/A,,Clear,200,2012-10-08 20:15:00
3:35 PM,66.9,32.9,28,29.90,10.0,SW,13.8,26.5,N/A,,Clear,220,2012-10-08 20:35:00
3:55 PM,67.1,32.7,28,29.89,10.0,SSW,15.0,24.2,N/A,,Clear,210,2012-10-08 20:55:00
4:15 PM,66.2,32.0,28,29.88,10.0,SSW,16.1,28.8,N/A,,Clear,210,2012-10-08 21:15:00
4:35 PM,66.2,32.0,28,29.88,10.0,SW,18.4,25.3,N/A,,Clear,220,2012-10-08 21:35:00
4:55 PM,65.8,31.6,28,29.87,10.0,SW,13.8,25.3,N/A,,Clear,220,2012-10-08 21:55:00
5:15 PM,65.7,32.0,29,29.87,10.0,South,17.3,26.5,N/A,,Clear,190,2012-10-08 22:15:00
5:35 PM,65.3,31.8,29,29.87,10.0,South,17.3,24.2,N/A,,Clear,190,2012-10-08 22:35:00
5:55 PM,63.9,31.6,30,29.87,10.0,SSW,15.0,25.3,N/A,,Clear,200,2012-10-08 22:55:00
6:15 PM,62.2,31.8,32,29.87,10.0,SSW,13.8,21.9,N/A,,Clear,200,2012-10-08 23:15:00
6:35 PM,61.3,32.0,33,29.87,10.0,South,12.7,19.6,N/A,,Clear,190,2012-10-08 23:35:00
6:55 PM,60.3,31.8,34,29.88,10.0,South,12.7,17.3,N/A,,Clear,190,2012-10-08 23:55:00
7:15 PM,59.5,32.0,35,29.89,10.0,South,12.7,18.4,N/A,,Clear,190,2012-10-09 00:15:00
7:35 PM,59.4,32.0,36,29.89,10.0,South,15.0,19.6,N/A,,Clear,190,2012-10-09 00:35:00
7:55 PM,58.8,32.0,36,29.89,10.0,South,12.7,17.3,N/A,,Clear,190,2012-10-09 00:55:00
8:15 PM,58.1,32.0,37,29.89,10.0,South,13.8,21.9,N/A,,Clear,190,2012-10-09 01:15:00
8:35 PM,57.4,32.0,38,29.89,10.0,South,11.5,20.7,N/A,,Clear,180,2012-10-09 01:35:00
8:55 PM,57.0,32.4,39,29.89,10.0,South,12.7,-,N/A,,Clear,190,2012-10-09 01:55:00
9:15 PM,56.1,32.5,41,29.89,10.0,South,16.1,20.7,N/A,,Clear,190,2012-10-09 02:15:00
9:35 PM,55.8,32.9,42,29.90,10.0,South,12.7,19.6,N/A,,Clear,190,2012-10-09 02:35:00
9:55 PM,55.4,33.3,43,29.89,10.0,South,12.7,21.9,N/A,,Clear,190,2012-10-09 02:55:00
10:15 PM,55.2,33.4,44,29.89,10.0,South,16.1,19.6,N/A,,Clear,180,2012-10-09 03:15:00
10:55 PM,54.1,33.8,46,29.89,10.0,South,13.8,17.3,N/A,,Clear,180,2012-10-09 03:55:00
11:15 PM,54.1,34.0,47,29.89,10.0,South,12.7,19.6,N/A,,Clear,190,2012-10-09 04:15:00
11:35 PM,53.6,34.0,47,29.89,10.0,South,11.5,21.9,N/A,,Clear,190,2012-10-09 04:35:00
11:55 PM,53.6,34.0,47,29.89,10.0,South,12.7,20.7,N/A,,Clear,190,2012-10-09 04:55:00